Flag for Germany

Past Weather in Aalen, Baden-Württemberg, Germany — Yesterday and Last 2 Weeks

Now
57 °F

Partly sunny.


Feels Like: 55 °F
Forecast: 74 / 51 °F
Wind: 9 mph from Southeast

Location: Niederstetten

Current Time: Jul 13, 2020 at 8:32:33 am

Latest Report: Jul 13, 2020 at 7:20 am


Visibility: N/A

Pressure: 30.24 "Hg

Humidity: 63%

Dew Point: 45 °F

Location of AalenLocation

Past Weather in Aalen — Graph

°F

Aalen Temperature Yesterday

Maximum temperature yesterday: 72 °F (at 4:20 pm)
Minimum temperature yesterday: 48 °F (at 4:20 am)
Average temperature yesterday: 61 °F

High & Low Weather Summary for the Past Weeks

 TemperatureHumidityPressure
High81 °F (Jul 1, 3:20 pm)100% (Jun 29, 3:20 am)30.30 "Hg (Jun 29, 3:20 am)
Low45 °F (Jul 7, 5:20 am)30% (Jul 9, 4:20 pm)29.80 "Hg (Jul 1, 5:00 pm)
Average64 °F63%30.04 "Hg
* Reported Jun 28 7:38 am — Jul 13 7:20 am, Aalen. Weather by CustomWeather, © 2020

Note: Actual official high and low records may vary slightly from our data, if they occured in-between our weather recording intervals... More about our weather records

Aalen Weather History for the Previous 24 Hours

Scroll right to see more
 ConditionsComfort  
Time TempWeatherWind HumidityBarometerVisibility
7:20 am
Mon, Jul 13
57 °FPartly sunny.9 mph63%30.24 "HgN/A
6:20 am52 °FPartly sunny.7 mph77%30.24 "HgN/A
5:20 am52 °FPassing clouds.8 mph72%30.24 "HgN/A
4:20 am50 °FPassing clouds.7 mph76%30.24 "HgN/A
3:20 am52 °FPassing clouds.8 mph72%30.24 "HgN/A
2:20 am54 °FPassing clouds.7 mph67%30.27 "HgN/A
1:20 am54 °FPassing clouds.7 mph67%30.27 "HgN/A
12:20 am55 °FPassing clouds.7 mph63%30.27 "HgN/A
11:20 pm
Sun, Jul 12
57 °FPassing clouds.7 mph55%30.27 "HgN/A
10:20 pm57 °FPassing clouds.6 mph55%30.27 "HgN/A
9:20 pm61 °FPassing clouds.7 mph48%30.27 "HgN/A
8:20 pm66 °FPassing clouds.6 mph40%30.27 "HgN/A
7:20 pm68 °FPassing clouds.7 mph38%30.27 "HgN/A
6:20 pm72 °FScattered clouds.8 mph33%30.27 "HgN/A
5:20 pm72 °FScattered clouds.5 mph33%30.27 "HgN/A
4:20 pm72 °FScattered clouds.6 mph31%30.27 "HgN/A
3:20 pm70 °FScattered clouds.3 mph33%30.30 "HgN/A
2:20 pm70 °FScattered clouds.6 mph33%30.30 "HgN/A
1:20 pm70 °FScattered clouds.8 mph33%30.30 "HgN/A
12:20 pm70 °FPassing clouds.7 mph35%30.30 "HgN/A
11:20 am68 °FPassing clouds.7 mph38%30.30 "HgN/A
10:20 am68 °FPassing clouds.10 mph40%30.30 "HgN/A
9:20 am64 °FPassing clouds.7 mph52%30.30 "HgN/A
8:20 am59 °FPassing clouds.7 mph59%30.30 "HgN/A
Weather by CustomWeather, © 2020

See weather overview